Precipitable_Water
1.50 1.44 1.43 1.41 1.42 1.40 1.40 1.39 1.36 1.38 1.40 1.46 1.52 1.59 1.63 1.64 1.64 1.65 1.68 1.64 1.64 1.61 1.59 1.59 1.61 1.63 1.67 1.70 1.69 1.69 1.70 1.71 1.74 1.72 1.68 1.62 1.60 1.56 1.55 1.53 1.48 1.49 1.49 1.45 1.47 1.46 1.44 1.43 1.44 1.48 1.55 1.51 1.52 1.54 1.54 1.56 1.57 1.57 1.57 1.52 1.45 1.46 1.38 1.29 1.19 1.24 1.46 1.63 1.59 1.56 1.63 1.62 1.45 1.46 1.33 1.24 1.16 1.21 1.27 1.25 1.21 1.17 1.19 1.23 1.27
1.57 1.55 1.51 1.48 1.42 1.41 1.42 1.44 1.42 1.39 1.35 1.38 1.43 1.52 1.59 1.62 1.65 1.66 1.62 1.66 1.67 1.64 1.64 1.65 1.66 1.66 1.67 1.69 1.71 1.71 1.72 1.72 1.75 1.75 1.70 1.66 1.62 1.63 1.59 1.54 1.49 1.48 1.51 1.47 1.49 1.51 1.52 1.47 1.46 1.47 1.52 1.49 1.50 1.50 1.53 1.51 1.50 1.45 1.44 1.39 1.35 1.36 1.46 1.33 1.31 1.29 1.26 1.50 1.52 1.60 1.56 1.59 1.32 1.41 1.26 1.10 1.02 1.05 1.03 1.05 1.12 1.17 1.19 1.26 1.27
1.67 1.65 1.59 1.53 1.48 1.47 1.47 1.45 1.45 1.40 1.33 1.32 1.35 1.44 1.53 1.60 1.64 1.61 1.61 1.63 1.67 1.68 1.70 1.72 1.73 1.74 1.71 1.70 1.70 1.69 1.69 1.69 1.72 1.71 1.69 1.68 1.65 1.64 1.64 1.61 1.56 1.50 1.48 1.48 1.51 1.57 1.56 1.53 1.50 1.50 1.49 1.42 1.44 1.47 1.53 1.50 1.51 1.45 1.40 1.42 1.39 1.44 1.51 1.51 1.40 1.32 1.32 1.38 1.49 1.42 1.41 1.39 1.30 1.21 1.19 1.11 1.07 1.06 1.01 1.05 1.09 1.19 1.27 1.32 1.34
1.73 1.72 1.70 1.66 1.60 1.53 1.48 1.48 1.45 1.42 1.35 1.30 1.30 1.38 1.48 1.53 1.59 1.59 1.60 1.62 1.60 1.67 1.73 1.77 1.79 1.78 1.74 1.73 1.72 1.72 1.72 1.72 1.71 1.71 1.68 1.68 1.66 1.65 1.67 1.66 1.64 1.59 1.55 1.53 1.54 1.57 1.56 1.54 1.54 1.55 1.53 1.46 1.47 1.50 1.53 1.52 1.48 1.46 1.43 1.46 1.47 1.48 1.56 1.60 1.58 1.46 1.43 1.33 1.41 1.35 1.36 1.25 1.23 1.22 1.16 1.11 1.07 1.07 1.09 1.14 1.24 1.25 1.28 1.35 1.38
1.80 1.77 1.74 1.71 1.69 1.61 1.52 1.50 1.47 1.43 1.38 1.33 1.28 1.35 1.42 1.47 1.52 1.54 1.59 1.60 1.63 1.65 1.70 1.76 1.77 1.77 1.74 1.75 1.76 1.77 1.77 1.78 1.75 1.72 1.71 1.71 1.70 1.71 1.72 1.72 1.70 1.68 1.65 1.63 1.62 1.62 1.61 1.59 1.59 1.59 1.57 1.49 1.49 1.49 1.53 1.51 1.53 1.52 1.48 1.50 1.50 1.54 1.56 1.57 1.56 1.55 1.44 1.34 1.33 1.37 1.34 1.27 1.23 1.17 1.13 1.01 1.04 1.11 1.18 1.19 1.23 1.26 1.28 1.37 1.40
1.85 1.84 1.82 1.74 1.71 1.67 1.61 1.52 1.48 1.47 1.43 1.38 1.32 1.32 1.38 1.43 1.46 1.51 1.56 1.58 1.63 1.67 1.69 1.73 1.75 1.74 1.76 1.77 1.77 1.78 1.79 1.79 1.77 1.75 1.74 1.74 1.74 1.76 1.78 1.78 1.75 1.74 1.74 1.72 1.69 1.68 1.66 1.65 1.64 1.63 1.59 1.52 1.50 1.51 1.53 1.51 1.55 1.54 1.52 1.52 1.53 1.52 1.49 1.51 1.54 1.50 1.42 1.35 1.29 1.22 1.28 1.20 1.15 1.12 1.13 1.13 1.06 1.03 1.10 1.21 1.29 1.33 1.29 1.27 1.35
1.89 1.84 1.81 1.79 1.77 1.74 1.69 1.58 1.51 1.50 1.50 1.45 1.40 1.34 1.34 1.39 1.44 1.47 1.54 1.55 1.58 1.64 1.70 1.73 1.79 1.79 1.79 1.79 1.76 1.75 1.77 1.79 1.78 1.77 1.77 1.78 1.77 1.76 1.77 1.77 1.75 1.74 1.74 1.74 1.74 1.74 1.73 1.71 1.69 1.68 1.64 1.61 1.56 1.53 1.53 1.54 1.55 1.54 1.53 1.51 1.53 1.50 1.48 1.48 1.48 1.43 1.37 1.30 1.30 1.30 1.25 1.29 1.22 1.09 1.21 1.27 1.24 1.20 1.10 1.09 1.12 1.29 1.35 1.31 1.26
1.97 1.94 1.87 1.82 1.76 1.74 1.73 1.68 1.58 1.53 1.53 1.53 1.48 1.41 1.37 1.37 1.41 1.48 1.54 1.53 1.56 1.61 1.65 1.70 1.78 1.83 1.84 1.82 1.81 1.80 1.79 1.79 1.80 1.80 1.79 1.78 1.78 1.76 1.76 1.75 1.74 1.72 1.72 1.72 1.72 1.72 1.73 1.74 1.74 1.75 1.73 1.70 1.64 1.60 1.57 1.52 1.55 1.50 1.54 1.54 1.52 1.49 1.44 1.44 1.43 1.40 1.35 1.34 1.31 1.29 1.32 1.26 1.28 1.31 1.33 1.30 1.22 1.24 1.29 1.18 1.08 1.13 1.23 1.36 1.41
1.95 1.96 2.04 2.03 1.93 1.83 1.79 1.74 1.66 1.57 1.54 1.53 1.51 1.48 1.43 1.40 1.41 1.46 1.50 1.53 1.58 1.64 1.70 1.74 1.78 1.82 1.85 1.85 1.84 1.86 1.83 1.82 1.83 1.81 1.78 1.77 1.79 1.78 1.78 1.76 1.73 1.69 1.68 1.68 1.69 1.70 1.70 1.71 1.72 1.75 1.77 1.76 1.74 1.69 1.66 1.65 1.60 1.52 1.57 1.60 1.56 1.53 1.49 1.45 1.42 1.38 1.38 1.37 1.34 1.39 1.35 1.31 1.31 1.27 1.24 1.22 1.20 1.18 1.26 1.28 1.19 1.25 1.29 1.30 1.42
1.98 1.96 1.91 1.91 2.01 2.03 1.94 1.84 1.72 1.61 1.54 1.50 1.51 1.53 1.52 1.49 1.46 1.44 1.45 1.49 1.54 1.61 1.67 1.72 1.76 1.80 1.81 1.82 1.84 1.84 1.83 1.84 1.84 1.84 1.83 1.80 1.79 1.79 1.79 1.78 1.76 1.73 1.70 1.66 1.66 1.67 1.68 1.69 1.71 1.72 1.74 1.75 1.76 1.75 1.74 1.73 1.74 1.71 1.70 1.70 1.66 1.61 1.56 1.52 1.48 1.46 1.42 1.35 1.34 1.37 1.33 1.31 1.34 1.34 1.30 1.34 1.38 1.37 1.30 1.26 1.16 1.22 1.23 1.21 1.33
2.00 1.98 1.91 1.90 1.98 2.06 2.07 1.97 1.84 1.65 1.57 1.54 1.54 1.54 1.55 1.56 1.52 1.48 1.45 1.45 1.47 1.52 1.60 1.62 1.64 1.67 1.70 1.73 1.76 1.78 1.79 1.81 1.82 1.83 1.84 1.86 1.87 1.84 1.80 1.77 1.78 1.77 1.75 1.71 1.66 1.66 1.69 1.71 1.71 1.72 1.73 1.74 1.76 1.79 1.79 1.81 1.83 1.85 1.84 1.80 1.75 1.67 1.59 1.53 1.52 1.53 1.47 1.42 1.44 1.41 1.37 1.34 1.38 1.44 1.42 1.43 1.43 1.37 1.31 1.29 1.23 1.21 1.12 1.02 0.98
2.03 2.01 1.98 1.97 1.99 2.05 2.08 2.06 1.98 1.81 1.68 1.59 1.57 1.59 1.58 1.56 1.53 1.52 1.51 1.48 1.46 1.47 1.50 1.55 1.58 1.60 1.61 1.64 1.65 1.69 1.74 1.79 1.80 1.81 1.82 1.85 1.89 1.90 1.91 1.88 1.86 1.83 1.81 1.77 1.74 1.72 1.71 1.73 1.75 1.77 1.76 1.77 1.80 1.81 1.81 1.80 1.80 1.81 1.81 1.79 1.77 1.76 1.73 1.61 1.50 1.47 1.49 1.48 1.47 1.48 1.45 1.38 1.38 1.43 1.44 1.42 1.44 1.50 1.51 1.43 1.31 1.19 1.13 1.08 1.10
2.11 2.11 2.09 2.04 1.98 1.98 2.05 2.14 2.05 1.95 1.82 1.72 1.69 1.66 1.60 1.59 1.58 1.54 1.49 1.52 1.56 1.53 1.51 1.53 1.54 1.59 1.61 1.60 1.59 1.64 1.69 1.76 1.78 1.80 1.82 1.83 1.84 1.88 1.89 1.90 1.89 1.89 1.90 1.87 1.83 1.81 1.81 1.80 1.81 1.85 1.85 1.88 1.90 1.92 1.90 1.89 1.91 1.89 1.86 1.81 1.80 1.78 1.74 1.73 1.71 1.63 1.60 1.52 1.47 1.47 1.45 1.39 1.33 1.41 1.51 1.57 1.66 1.62 1.69 1.60 1.50 1.36 1.25 1.17 1.22
2.12 2.14 2.14 2.09 2.03 1.98 2.01 2.02 2.03 2.01 1.95 1.84 1.77 1.71 1.65 1.62 1.66 1.72 1.69 1.62 1.54 1.54 1.60 1.59 1.59 1.60 1.61 1.61 1.61 1.65 1.68 1.73 1.77 1.80 1.82 1.84 1.85 1.86 1.84 1.83 1.85 1.88 1.92 1.94 1.92 1.90 1.89 1.87 1.86 1.86 1.92 1.95 1.95 1.93 1.92 1.93 1.93 1.91 1.89 1.88 1.86 1.87 1.86 1.83 1.80 1.76 1.72 1.62 1.53 1.40 1.44 1.47 1.40 1.48 1.63 1.75 1.71 1.66 1.68 1.67 1.65 1.45 1.36 1.33 1.44
2.04 2.05 2.09 2.15 2.14 2.07 2.00 1.96 1.93 1.98 1.97 1.95 1.90 1.82 1.76 1.71 1.72 1.76 1.74 1.68 1.63 1.65 1.68 1.67 1.65 1.66 1.67 1.68 1.68 1.68 1.72 1.77 1.80 1.83 1.87 1.88 1.89 1.89 1.86 1.84 1.82 1.83 1.89 1.94 1.95 1.94 1.94 1.94 1.94 1.92 1.96 1.98 2.00 1.98 1.94 1.93 1.92 1.90 1.87 1.85 1.87 1.88 1.88 1.85 1.80 1.74 1.68 1.63 1.54 1.48 1.49 1.53 1.53 1.53 1.56 1.60 1.62 1.67 1.72 1.71 1.68 1.59 1.56 1.61 1.60
2.09 2.09 2.07 2.09 2.13 2.15 2.08 2.04 2.03 1.96 1.95 1.96 1.97 1.89 1.87 1.80 1.76 1.78 1.79 1.81 1.84 1.85 1.79 1.78 1.80 1.78 1.74 1.73 1.72 1.71 1.78 1.83 1.84 1.86 1.89 1.91 1.91 1.89 1.87 1.84 1.82 1.81 1.83 1.87 1.91 1.95 1.98 1.99 2.02 2.02 2.02 2.02 2.04 2.03 1.96 1.94 1.90 1.86 1.81 1.79 1.78 1.79 1.80 1.85 1.86 1.85 1.81 1.75 1.70 1.67 1.65 1.60 1.56 1.54 1.56 1.59 1.62 1.65 1.66 1.68 1.67 1.63 1.54 1.44 1.42
2.05 2.08 2.08 2.09 2.16 2.19 2.14 2.08 2.10 2.06 2.00 1.98 1.96 2.01 1.97 1.91 1.89 1.90 1.84 1.87 1.86 1.86 1.84 1.94 2.03 1.96 1.87 1.85 1.77 1.76 1.81 1.83 1.82 1.82 1.82 1.83 1.83 1.82 1.82 1.81 1.80 1.79 1.81 1.86 1.90 1.93 1.96 1.98 1.96 1.93 1.94 1.98 2.07 2.05 1.99 1.95 1.87 1.82 1.76 1.72 1.70 1.68 1.67 1.76 1.83 1.88 1.89 1.84 1.77 1.73 1.72 1.72 1.71 1.70 1.69 1.69 1.66 1.67 1.61 1.50 1.46 1.53 1.45 1.38 1.44
2.02 2.06 2.05 2.03 2.06 2.12 2.11 2.08 2.09 2.08 2.02 1.99 2.02 2.05 2.03 2.02 2.01 2.02 1.92 1.88 1.87 1.91 1.97 2.02 2.05 2.02 1.93 1.90 1.87 1.78 1.76 1.79 1.81 1.82 1.82 1.81 1.80 1.78 1.79 1.76 1.73 1.72 1.74 1.83 1.90 1.94 1.97 2.00 2.03 2.04 2.01 2.03 2.08 2.08 2.02 1.99 1.86 1.80 1.76 1.73 1.71 1.68 1.68 1.75 1.79 1.83 1.87 1.83 1.80 1.81 1.82 1.81 1.80 1.78 1.76 1.74 1.74 1.75 1.64 1.48 1.58 1.58 1.45 1.43 1.38
1.95 1.95 1.97 2.03 2.06 2.09 2.07 2.03 2.04 2.05 2.02 2.00 2.03 2.02 2.01 2.03 2.06 2.08 2.04 2.00 1.97 1.99 1.98 1.95 1.95 2.03 2.02 1.99 2.01 1.94 1.87 1.86 1.86 1.83 1.82 1.83 1.84 1.84 1.82 1.79 1.74 1.73 1.72 1.70 1.77 1.82 1.88 1.97 2.03 2.06 2.07 2.08 2.11 2.11 2.07 2.04 1.93 1.86 1.82 1.78 1.74 1.72 1.78 1.83 1.78 1.72 1.71 1.72 1.75 1.77 1.78 1.82 1.82 1.79 1.75 1.73 1.73 1.75 1.74 1.68 1.66 1.55 1.44 1.43 1.42
1.95 1.94 1.94 1.94 1.97 2.00 2.05 1.98 1.96 1.98 1.98 2.01 2.03 2.04 2.06 2.04 2.05 2.07 2.05 2.06 2.01 1.98 1.97 1.95 1.89 1.87 1.88 1.90 1.95 1.99 1.99 2.01 2.01 1.99 1.97 1.94 1.94 1.93 1.95 1.91 1.87 1.86 1.87 1.83 1.79 1.81 1.84 1.86 1.92 2.01 2.17 2.16 2.12 2.12 2.10 2.11 2.01 1.97 1.94 1.86 1.80 1.77 1.93 1.90 1.86 1.77 1.73 1.74 1.77 1.81 1.81 1.84 1.83 1.81 1.75 1.72 1.72 1.72 1.71 1.70 1.66 1.57 1.45 1.37 1.32
1.88 1.95 1.96 1.96 1.95 1.97 1.98 1.98 1.96 1.98 1.99 1.98 2.01 2.01 2.01 1.99 2.00 2.01 2.02 2.03 2.00 1.97 1.93 1.90 1.89 1.89 1.90 1.92 1.94 1.97 2.02 2.04 2.03 2.04 2.05 2.05 2.05 2.02 2.02 2.02 2.02 2.00 1.99 1.96 1.93 1.90 1.90 1.93 1.96 2.01 2.03 2.07 2.12 2.10 2.07 2.08 2.10 2.07 2.02 1.94 1.93 1.97 1.99 1.89 1.88 1.84 1.82 1.83 1.83 1.82 1.80 1.82 1.84 1.83 1.79 1.73 1.67 1.65 1.64 1.64 1.63 1.59 1.45 1.31 1.23
1.77 1.79 1.80 1.80 1.80 1.81 1.84 1.85 1.89 1.90 1.95 1.97 1.95 1.96 2.01 2.02 2.01 2.03 2.03 2.02 1.98 1.95 1.94 1.93 1.91 1.89 1.93 1.96 1.97 1.97 2.02 2.03 2.01 1.99 2.00 2.01 2.02 2.04 2.04 2.04 2.09 2.03 2.04 2.01 1.99 2.00 2.01 2.03 2.07 2.11 2.11 2.12 2.14 2.14 2.13 2.12 2.13 2.14 2.11 2.09 2.07 2.02 1.95 1.92 1.92 1.90 1.87 1.83 1.78 1.74 1.74 1.76 1.77 1.78 1.78 1.75 1.69 1.61 1.54 1.49 1.49 1.47 1.43 1.37 1.26
1.59 1.62 1.64 1.65 1.68 1.71 1.73 1.74 1.77 1.83 1.85 1.87 1.85 1.85 1.91 1.93 1.97 2.01 2.01 1.99 1.96 1.95 1.96 1.98 1.95 1.93 1.94 1.97 2.01 2.02 2.04 2.06 2.06 2.04 2.05 2.07 2.08 2.10 2.10 2.11 2.13 2.13 2.09 2.04 2.04 2.06 2.11 2.09 2.10 2.12 2.13 2.14 2.14 2.14 2.13 2.12 2.10 2.16 2.19 2.13 2.05 2.01 1.96 1.94 1.95 1.90 1.83 1.76 1.72 1.68 1.68 1.69 1.69 1.70 1.72 1.69 1.65 1.57 1.47 1.42 1.43 1.46 1.47 1.45 1.37
1.43 1.42 1.43 1.46 1.50 1.55 1.59 1.65 1.70 1.74 1.74 1.75 1.74 1.73 1.75 1.78 1.82 1.85 1.90 1.92 1.91 1.89 1.90 1.92 1.92 1.89 1.89 1.90 1.93 1.95 1.97 1.99 1.99 2.00 1.99 2.00 2.01 2.03 2.04 2.06 2.07 2.08 2.11 2.10 2.13 2.14 2.14 2.16 2.18 2.19 2.18 2.17 2.19 2.16 2.16 2.16 2.14 2.14 2.14 2.07 1.98 1.93 1.91 1.88 1.86 1.82 1.75 1.69 1.65 1.63 1.61 1.64 1.65 1.65 1.65 1.64 1.58 1.52 1.45 1.40 1.40 1.42 1.38 1.33 1.30
1.23 1.22 1.22 1.23 1.26 1.31 1.37 1.42 1.47 1.52 1.57 1.59 1.58 1.59 1.62 1.69 1.72 1.77 1.80 1.82 1.82 1.79 1.81 1.86 1.82 1.81 1.79 1.79 1.83 1.87 1.91 1.93 1.94 1.95 1.95 1.95 1.94 1.94 1.95 1.96 1.97 1.99 1.98 2.00 2.03 2.05 2.08 2.11 2.15 2.16 2.13 2.10 2.05 2.06 2.11 2.14 2.15 2.12 2.08 2.02 1.94 1.89 1.89 1.89 1.84 1.77 1.70 1.66 1.64 1.63 1.62 1.62 1.64 1.63 1.62 1.58 1.55 1.49 1.40 1.36 1.36 1.31 1.24 1.19 1.15
1.09 1.10 1.14 1.16 1.17 1.19 1.22 1.28 1.32 1.34 1.38 1.41 1.43 1.46 1.48 1.53 1.58 1.64 1.69 1.72 1.73 1.71 1.68 1.68 1.68 1.68 1.68 1.70 1.72 1.74 1.76 1.78 1.78 1.79 1.80 1.79 1.77 1.77 1.76 1.76 1.78 1.82 1.87 1.88 1.88 1.88 1.89 1.92 1.95 1.95 1.93 1.94 1.98 2.03 2.07 2.10 2.08 2.03 1.98 1.97 1.93 1.90 1.87 1.84 1.81 1.75 1.69 1.65 1.63 1.59 1.60 1.61 1.58 1.58 1.57 1.52 1.43 1.34 1.28 1.22 1.18 1.11 1.05 0.98 0.91
1.01 1.02 1.03 1.06 1.09 1.11 1.10 1.10 1.12 1.16 1.20 1.21 1.24 1.29 1.36 1.39 1.41 1.47 1.52 1.58 1.63 1.66 1.64 1.60 1.58 1.58 1.57 1.58 1.59 1.61 1.62 1.64 1.63 1.63 1.63 1.63 1.64 1.65 1.64 1.61 1.61 1.61 1.58 1.61 1.67 1.70 1.72 1.73 1.75 1.79 1.89 2.06 2.03 2.00 1.99 2.01 1.93 1.96 1.92 1.92 1.88 1.86 1.87 1.84 1.79 1.72 1.67 1.63 1.63 1.62 1.62 1.62 1.59 1.52 1.44 1.36 1.26 1.23 1.20 1.12 1.04 0.95 0.88 0.82 0.76
0.95 0.95 0.96 0.97 0.98 1.00 1.02 1.03 1.02 1.02 1.03 1.05 1.05 1.10 1.20 1.29 1.34 1.39 1.43 1.47 1.50 1.54 1.55 1.53 1.51 1.50 1.50 1.50 1.49 1.50 1.49 1.49 1.49 1.51 1.54 1.55 1.56 1.57 1.56 1.52 1.46 1.46 1.49 1.49 1.50 1.59 1.69 1.73 1.80 1.99 1.98 2.06 2.04 1.92 1.97 1.91 1.82 1.81 1.80 1.78 1.77 1.79 1.78 1.77 1.75 1.70 1.67 1.64 1.59 1.58 1.52 1.47 1.37 1.30 1.28 1.24 1.20 1.15 1.11 1.02 0.89 0.79 0.75 0.71 0.64
0.96 0.96 0.96 0.95 0.94 0.95 0.94 0.93 0.93 0.92 0.93 0.96 0.98 1.00 1.01 1.06 1.18 1.29 1.42 1.46 1.48 1.48 1.49 1.49 1.47 1.45 1.44 1.43 1.43 1.45 1.49 1.49 1.50 1.52 1.48 1.43 1.39 1.38 1.43 1.44 1.42 1.39 1.42 1.50 1.50 1.51 1.54 1.47 1.48 1.66 1.84 1.94 1.91 1.87 1.90 1.84 1.76 1.77 1.73 1.71 1.70 1.68 1.66 1.65 1.64 1.63 1.59 1.51 1.39 1.30 1.23 1.17 1.15 1.17 1.17 1.13 1.09 1.03 0.98 0.85 0.79 0.72 0.69 0.67 0.59
0.94 0.98 1.00 0.97 0.96 0.95 0.92 0.91 0.91 0.89 0.89 0.88 0.89 0.89 0.95 0.97 1.00 1.05 1.14 1.31 1.40 1.44 1.46 1.45 1.47 1.46 1.41 1.43 1.45 1.39 1.35 1.36 1.37 1.35 1.36 1.35 1.32 1.26 1.29 1.37 1.42 1.42 1.44 1.43 1.45 1.40 1.39 1.39 1.40 1.46 1.52 1.57 1.64 1.68 1.67 1.64 1.65 1.65 1.65 1.64 1.64 1.64 1.63 1.61 1.54 1.45 1.35 1.23 1.16 1.10 1.06 1.05 1.04 1.04 1.01 0.95 0.90 0.85 0.81 0.76 0.70 0.69 0.63 0.58 0.54
0.89 0.93 0.98 1.00 1.01 1.01 1.00 0.99 0.97 0.94 0.92 0.89 0.88 0.85 0.82 0.87 0.92 0.94 0.96 0.99 1.05 1.14 1.21 1.28 1.35 1.36 1.33 1.27 1.27 1.25 1.25 1.27 1.29 1.26 1.22 1.20 1.20 1.19 1.19 1.24 1.33 1.40 1.44 1.39 1.33 1.32 1.31 1.31 1.37 1.41 1.46 1.50 1.53 1.56 1.57 1.55 1.53 1.53 1.51 1.52 1.53 1.52 1.49 1.41 1.33 1.26 1.17 1.11 1.08 1.05 1.03 1.01 0.97 0.94 0.89 0.85 0.78 0.74 0.72 0.71 0.68 0.63 0.58 0.56 0.53
0.78 0.82 0.86 0.91 0.95 0.97 0.98 1.00 1.00 0.97 0.94 0.93 0.90 0.88 0.85 0.81 0.84 0.92 0.96 0.98 1.00 1.01 1.03 1.06 1.10 1.12 1.13 1.09 1.05 1.04 1.05 1.02 1.00 1.04 1.11 1.15 1.12 1.11 1.12 1.17 1.23 1.30 1.36 1.41 1.36 1.32 1.30 1.31 1.33 1.34 1.39 1.41 1.43 1.43 1.43 1.42 1.41 1.40 1.39 1.37 1.35 1.36 1.31 1.24 1.19 1.14 1.09 1.06 1.04 1.03 1.01 0.99 0.95 0.92 0.88 0.81 0.74 0.69 0.66 0.64 0.62 0.60 0.58 0.58 0.56
0.73 0.76 0.78 0.78 0.77 0.80 0.82 0.86 0.89 0.92 0.92 0.89 0.88 0.88 0.86 0.83 0.79 0.81 0.89 0.95 0.96 0.96 0.98 0.99 0.99 0.98 0.98 0.98 0.98 0.97 0.98 1.01 1.03 1.02 0.98 0.94 0.95 0.96 1.02 1.10 1.16 1.22 1.25 1.25 1.25 1.29 1.33 1.32 1.29 1.32 1.36 1.36 1.37 1.37 1.37 1.37 1.37 1.36 1.36 1.34 1.30 1.27 1.22 1.18 1.15 1.09 1.07 1.05 1.03 1.00 0.99 0.96 0.93 0.89 0.83 0.76 0.69 0.65 0.65 0.64 0.64 0.63 0.61 0.57 0.54
0.72 0.73 0.75 0.77 0.76 0.74 0.72 0.71 0.72 0.73 0.78 0.83 0.87 0.86 0.86 0.84 0.82 0.81 0.80 0.81 0.84 0.88 0.92 0.91 0.91 0.94 0.95 0.97 0.98 0.99 0.99 0.99 1.00 1.03 1.04 1.04 1.01 0.98 0.93 0.93 1.02 1.11 1.15 1.15 1.15 1.17 1.23 1.29 1.28 1.29 1.31 1.35 1.38 1.39 1.36 1.37 1.37 1.35 1.35 1.33 1.28 1.22 1.17 1.15 1.10 1.07 1.06 1.04 1.01 1.00 0.97 0.94 0.91 0.84 0.76 0.71 0.70 0.68 0.66 0.65 0.63 0.58 0.55 0.54 0.52
0.72 0.74 0.76 0.75 0.72 0.71 0.71 0.71 0.71 0.71 0.70 0.70 0.72 0.77 0.83 0.86 0.84 0.81 0.79 0.77 0.77 0.78 0.82 0.87 0.92 0.93 0.91 0.92 0.95 0.99 1.01 1.01 0.99 0.98 1.00 1.00 1.00 0.99 1.01 0.95 0.89 0.93 1.00 1.05 1.08 1.11 1.13 1.16 1.22 1.29 1.33 1.34 1.37 1.38 1.35 1.33 1.34 1.32 1.29 1.26 1.22 1.17 1.13 1.10 1.08 1.07 1.03 1.01 1.00 0.97 0.95 0.90 0.86 0.81 0.76 0.73 0.70 0.68 0.66 0.64 0.62 0.59 0.56 0.55 0.54
0.67 0.66 0.67 0.66 0.64 0.64 0.66 0.68 0.69 0.68 0.66 0.67 0.69 0.71 0.76 0.80 0.77 0.79 0.81 0.85 0.83 0.82 0.82 0.84 0.88 0.91 0.92 0.91 0.92 0.93 0.96 0.97 0.95 0.94 0.94 0.95 0.97 1.02 0.92 0.85 0.86 0.86 0.86 0.88 0.89 0.92 1.03 1.08 1.11 1.14 1.22 1.28 1.33 1.34 1.33 1.29 1.30 1.29 1.27 1.23 1.17 1.13 1.09 1.07 1.05 1.03 1.02 1.00 0.97 0.93 0.89 0.85 0.83 0.80 0.78 0.76 0.73 0.70 0.67 0.64 0.62 0.62 0.60 0.58 0.57
0.67 0.66 0.66 0.66 0.66 0.64 0.62 0.62 0.64 0.66 0.66 0.66 0.70 0.71 0.74 0.78 0.79 0.78 0.79 0.82 0.83 0.85 0.85 0.87 0.90 0.92 0.93 0.94 0.95 0.95 0.95 0.96 0.96 0.96 0.93 0.92 0.96 0.97 0.91 0.89 0.86 0.88 0.88 0.89 0.94 1.00 1.03 1.03 1.03 1.05 1.09 1.15 1.21 1.25 1.28 1.27 1.29 1.26 1.24 1.21 1.17 1.12 1.07 1.05 1.03 1.01 0.97 0.93 0.89 0.87 0.84 0.82 0.81 0.79 0.76 0.72 0.70 0.68 0.67 0.65 0.63 0.62 0.60 0.58 0.57
0.71 0.68 0.68 0.69 0.69 0.68 0.64 0.63 0.64 0.67 0.66 0.66 0.68 0.70 0.73 0.75 0.77 0.77 0.77 0.78 0.80 0.81 0.81 0.84 0.86 0.86 0.85 0.88 0.97 0.97 0.96 0.97 0.97 0.96 0.95 0.93 0.92 0.93 0.94 0.94 0.95 0.91 0.89 0.90 0.92 0.94 0.97 1.02 1.06 1.04 1.03 1.05 1.06 1.09 1.11 1.13 1.14 1.14 1.13 1.13 1.11 1.09 1.05 1.01 0.98 0.94 0.91 0.88 0.85 0.84 0.82 0.80 0.79 0.77 0.74 0.70 0.67 0.66 0.65 0.65 0.63 0.61 0.60 0.59 0.57
0.72 0.72 0.71 0.71 0.71 0.70 0.67 0.65 0.67 0.67 0.67 0.68 0.70 0.70 0.70 0.71 0.74 0.75 0.76 0.77 0.76 0.76 0.77 0.78 0.79 0.80 0.84 0.89 0.92 0.94 0.92 0.87 0.84 0.82 0.84 0.87 0.91 0.93 0.95 0.96 0.95 0.95 0.95 0.96 0.95 0.92 0.91 0.94 0.98 1.01 1.02 1.01 1.01 1.01 1.01 1.01 1.02 1.02 1.03 1.01 1.00 0.99 0.96 0.93 0.91 0.89 0.86 0.84 0.82 0.81 0.79 0.77 0.76 0.75 0.74 0.71 0.69 0.67 0.65 0.63 0.62 0.60 0.58 0.56 0.55
0.71 0.71 0.70 0.70 0.69 0.69 0.69 0.69 0.69 0.68 0.69 0.68 0.69 0.70 0.71 0.71 0.72 0.73 0.74 0.73 0.73 0.74 0.75 0.75 0.76 0.78 0.83 0.86 0.86 0.86 0.81 0.81 0.81 0.83 0.84 0.84 0.85 0.88 0.89 0.91 0.97 1.00 0.97 0.96 0.97 0.98 0.97 0.98 0.97 0.94 0.94 0.98 1.00 0.99 0.99 0.98 0.98 0.99 0.99 0.98 0.95 0.93 0.91 0.87 0.84 0.81 0.79 0.78 0.77 0.77 0.76 0.75 0.74 0.72 0.71 0.69 0.68 0.65 0.63 0.62 0.60 0.59 0.57 0.55 0.54
0.72 0.74 0.75 0.73 0.70 0.67 0.65 0.65 0.65 0.66 0.68 0.70 0.71 0.71 0.71 0.72 0.74 0.75 0.74 0.74 0.74 0.74 0.75 0.76 0.78 0.81 0.83 0.84 0.84 0.81 0.77 0.75 0.77 0.80 0.82 0.84 0.86 0.86 0.87 0.88 0.89 0.90 0.95 1.00 1.00 0.99 0.98 0.98 0.98 1.01 1.02 1.01 1.00 0.97 0.95 0.94 0.93 0.91 0.89 0.87 0.86 0.85 0.84 0.83 0.82 0.80 0.79 0.78 0.76 0.74 0.73 0.72 0.71 0.68 0.65 0.66 0.66 0.64 0.62 0.60 0.58 0.57 0.56 0.56 0.56
0.68 0.69 0.72 0.74 0.73 0.70 0.67 0.65 0.66 0.68 0.67 0.68 0.70 0.72 0.74 0.75 0.75 0.75 0.75 0.74 0.75 0.75 0.76 0.77 0.78 0.79 0.80 0.81 0.79 0.79 0.78 0.78 0.78 0.78 0.78 0.80 0.81 0.83 0.85 0.87 0.89 0.89 0.89 0.91 0.93 0.94 0.96 0.97 0.98 0.97 0.94 0.94 0.97 1.00 1.01 0.98 0.95 0.94 0.92 0.91 0.89 0.87 0.85 0.82 0.80 0.78 0.76 0.75 0.73 0.72 0.70 0.69 0.68 0.66 0.64 0.64 0.61 0.60 0.58 0.57 0.57 0.57 0.57 0.58 0.58
0.68 0.70 0.73 0.75 0.75 0.73 0.71 0.71 0.72 0.70 0.67 0.65 0.66 0.70 0.73 0.75 0.76 0.77 0.77 0.76 0.76 0.76 0.75 0.75 0.76 0.78 0.78 0.78 0.78 0.77 0.77 0.77 0.77 0.77 0.78 0.79 0.79 0.80 0.80 0.82 0.84 0.86 0.87 0.88 0.89 0.89 0.91 0.93 0.95 0.95 0.95 0.94 0.94 0.91 0.88 0.87 0.88 0.90 0.90 0.88 0.84 0.81 0.80 0.79 0.78 0.76 0.74 0.72 0.70 0.68 0.67 0.66 0.64 0.62 0.61 0.61 0.59 0.58 0.57 0.58 0.58 0.58 0.57 0.57 0.57
0.64 0.68 0.73 0.75 0.77 0.77 0.77 0.76 0.74 0.72 0.71 0.69 0.67 0.67 0.70 0.73 0.76 0.76 0.77 0.77 0.78 0.78 0.77 0.77 0.77 0.77 0.78 0.79 0.79 0.77 0.75 0.75 0.74 0.74 0.75 0.75 0.76 0.77 0.79 0.81 0.82 0.83 0.84 0.84 0.85 0.85 0.84 0.83 0.85 0.88 0.91 0.94 0.95 0.95 0.93 0.92 0.91 0.88 0.85 0.83 0.81 0.81 0.80 0.78 0.75 0.72 0.70 0.69 0.68 0.66 0.64 0.63 0.61 0.59 0.58 0.59 0.58 0.57 0.58 0.58 0.58 0.57 0.57 0.57 0.57
0.58 0.60 0.64 0.68 0.73 0.75 0.77 0.78 0.77 0.76 0.74 0.73 0.71 0.70 0.70 0.68 0.69 0.71 0.74 0.75 0.76 0.77 0.78 0.78 0.79 0.78 0.78 0.78 0.78 0.77 0.77 0.77 0.76 0.75 0.73 0.72 0.71 0.72 0.74 0.76 0.77 0.79 0.80 0.81 0.82 0.82 0.81 0.81 0.80 0.80 0.80 0.82 0.83 0.84 0.85 0.86 0.87 0.87 0.86 0.85 0.82 0.80 0.80 0.79 0.79 0.79 0.78 0.74 0.71 0.68 0.65 0.63 0.61 0.61 0.61 0.61 0.60 0.59 0.58 0.58 0.59 0.59 0.58 0.57 0.57
0.60 0.59 0.59 0.60 0.63 0.67 0.70 0.72 0.75 0.75 0.74 0.73 0.73 0.72 0.72 0.72 0.72 0.72 0.72 0.73 0.73 0.73 0.75 0.77 0.78 0.78 0.77 0.77 0.77 0.77 0.77 0.77 0.76 0.75 0.74 0.73 0.73 0.72 0.73 0.74 0.75 0.75 0.75 0.76 0.77 0.77 0.78 0.78 0.78 0.78 0.77 0.77 0.77 0.77 0.77 0.78 0.78 0.79 0.80 0.80 0.80 0.80 0.81 0.81 0.80 0.78 0.75 0.73 0.72 0.70 0.69 0.68 0.66 0.65 0.64 0.63 0.62 0.61 0.60 0.60 0.61 0.61 0.60 0.59 0.59
0.61 0.63 0.64 0.65 0.64 0.63 0.63 0.64 0.65 0.66 0.67 0.66 0.67 0.69 0.71 0.74 0.77 0.78 0.78 0.78 0.76 0.76 0.75 0.75 0.75 0.75 0.76 0.77 0.77 0.77 0.77 0.76 0.74 0.73 0.73 0.73 0.73 0.74 0.75 0.75 0.75 0.74 0.73 0.72 0.71 0.70 0.71 0.71 0.73 0.74 0.74 0.74 0.74 0.74 0.74 0.74 0.74 0.74 0.75 0.75 0.75 0.75 0.74 0.72 0.71 0.70 0.70 0.69 0.69 0.67 0.65 0.64 0.63 0.62 0.62 0.62 0.60 0.59 0.59 0.59 0.60 0.59 0.59 0.59 0.58
0.60 0.60 0.61 0.63 0.65 0.65 0.66 0.66 0.65 0.65 0.64 0.64 0.64 0.65 0.66 0.69 0.71 0.74 0.76 0.77 0.77 0.78 0.77 0.77 0.76 0.77 0.77 0.77 0.77 0.77 0.77 0.75 0.74 0.73 0.73 0.73 0.73 0.73 0.73 0.73 0.72 0.71 0.71 0.70 0.69 0.68 0.67 0.67 0.67 0.68 0.69 0.70 0.70 0.70 0.70 0.70 0.69 0.69 0.70 0.70 0.70 0.69 0.68 0.68 0.68 0.68 0.68 0.67 0.66 0.64 0.63 0.61 0.60 0.60 0.60 0.59 0.58 0.58 0.57 0.57 0.59 0.59 0.59 0.58 0.56
0.62 0.61 0.61 0.62 0.64 0.65 0.66 0.66 0.66 0.66 0.67 0.68 0.68 0.69 0.69 0.69 0.68 0.69 0.70 0.71 0.73 0.74 0.74 0.74 0.75 0.77 0.77 0.77 0.76 0.75 0.75 0.74 0.73 0.73 0.74 0.74 0.74 0.74 0.73 0.71 0.70 0.68 0.66 0.65 0.64 0.64 0.64 0.64 0.65 0.65 0.66 0.67 0.67 0.67 0.66 0.66 0.66 0.65 0.65 0.64 0.63 0.62 0.61 0.62 0.62 0.62 0.62 0.62 0.61 0.61 0.60 0.59 0.57 0.57 0.57 0.57 0.57 0.57 0.57 0.58 0.58 0.58 0.58 0.56 0.55
0.59 0.60 0.61 0.61 0.62 0.64 0.66 0.68 0.68 0.69 0.70 0.70 0.70 0.70 0.71 0.72 0.73 0.72 0.71 0.69 0.67 0.67 0.68 0.70 0.71 0.73 0.73 0.74 0.73 0.73 0.72 0.71 0.71 0.71 0.72 0.73 0.74 0.74 0.73 0.71 0.68 0.66 0.63 0.62 0.61 0.60 0.60 0.61 0.62 0.62 0.62 0.63 0.63 0.64 0.64 0.64 0.63 0.63 0.62 0.61 0.60 0.60 0.60 0.60 0.59 0.59 0.59 0.58 0.57 0.57 0.56 0.55 0.55 0.54 0.55 0.55 0.55 0.55 0.55 0.55 0.56 0.57 0.55 0.54 0.53
0.58 0.58 0.59 0.60 0.61 0.62 0.62 0.63 0.63 0.65 0.66 0.67 0.68 0.70 0.72 0.72 0.72 0.73 0.72 0.70 0.68 0.68 0.69 0.69 0.70 0.69 0.69 0.69 0.70 0.71 0.71 0.71 0.71 0.71 0.71 0.70 0.70 0.71 0.70 0.69 0.66 0.64 0.62 0.60 0.59 0.58 0.58 0.59 0.59 0.59 0.59 0.58 0.58 0.58 0.58 0.59 0.60 0.60 0.59 0.59 0.60 0.60 0.60 0.59 0.59 0.58 0.59 0.58 0.58 0.57 0.56 0.55 0.54 0.53 0.53 0.53 0.54 0.53 0.54 0.54 0.54 0.54 0.53 0.53 0.53
Wind_Speed
20 20 19 19 19 19 19 19 19 18 18 17 17 17 16 16 15 15 15 14 14 14 13 13 13 12 12 12 11 11 11 11 11 10 10 10 10 10 9 9 9 9 9 9 9 8 8 8 8 8 8 8 8 8 8 8 8 8 8 8 7 7 7 7 7 7 7 7 7 7 7 7 7 8 9 9 10 10 10 11 12 12 12 13 14
20 20 20 20 20 20 20 19 19 19 19 18 18 18 17 17 16 16 16 15 15 15 14 14 14 13 13 13 12 12 12 11 11 11 11 11 11 10 10 10 10 10 9 9 9 9 9 9 9 8 8 8 8 8 8 8 8 8 8 8 7 7 7 7 7 7 7 7 7 7 7 7 8 9 10 10 10 10 11 11 12 12 13 13 14
21 21 21 21 21 20 20 20 20 20 19 19 19 18 18 18 17 17 16 16 16 15 15 15 14 14 14 13 13 13 12 12 12 12 12 11 11 11 11 11 11 10 10 10 10 9 9 9 9 9 8 8 8 8 8 8 7 7 7 7 7 7 7 7 7 7 7 8 8 8 8 8 9 10 10 11 11 11 11 12 12 13 13 14 14
22 22 22 22 21 21 21 21 21 21 20 20 20 19 18 18 17 17 17 17 16 16 16 15 15 15 14 14 13 13 13 13 12 12 12 12 12 12 11 11 11 11 11 10 10 10 10 10 9 9 8 8 8 8 8 8 8 7 7 7 7 7 7 7 8 8 8 8 8 9 9 9 10 11 11 11 11 11 11 12 13 13 14 14 14
23 23 23 23 22 22 22 22 22 22 21 21 21 20 19 19 18 18 17 17 17 16 16 16 16 15 15 15 14 14 14 14 13 13 13 13 13 12 12 12 11 11 11 11 11 10 10 10 10 10 9 9 9 9 9 9 8 8 8 8 8 8 8 8 8 8 9 9 9 9 10 10 11 11 11 11 12 12 12 12 13 14 14 14 15
24 24 24 24 24 24 23 23 23 23 23 22 22 21 21 20 19 19 18 18 18 17 17 17 16 16 16 16 15 15 15 15 14 14 14 14 13 13 13 13 12 12 12 12 11 11 11 11 11 10 10 10 10 10 10 10 9 9 9 9 9 8 8 9 9 9 9 10 10 10 11 11 12 12 11 12 12 13 13 13 13 14 14 15 15
26 25 25 25 25 25 25 25 24 24 24 23 23 23 22 22 21 20 20 19 19 18 18 18 17 17 16 16 16 16 16 16 16 15 15 15 14 14 14 14 13 13 13 13 13 12 12 12 12 12 11 11 11 11 11 11 10 10 10 10 10 10 10 10 10 10 10 11 11 12 12 12 12 12 12 12 13 13 14 14 14 14 15 15 16
27 26 26 26 26 26 26 26 26 25 25 25 24 24 24 23 23 22 22 21 20 20 20 19 18 18 17 17 17 17 17 17 17 16 16 16 16 15 15 15 15 14 14 14 14 14 13 13 13 13 13 12 12 12 12 12 12 12 11 11 11 11 11 11 11 11 12 12 12 12 13 13 13 13 13 13 14 14 14 15 15 15 16 16 16
29 28 28 28 28 28 27 27 27 27 26 26 25 25 25 24 24 24 23 23 22 22 21 20 20 19 19 19 18 18 18 18 18 18 17 17 17 17 16 16 16 16 16 15 15 15 15 15 14 14 14 14 14 14 13 13 13 13 13 12 12 12 12 13 13 13 13 13 14 14 14 14 14 14 14 15 15 15 15 16 16 16 16 16 16
32 31 31 31 30 30 29 28 28 28 27 27 26 26 26 25 25 25 25 24 24 23 22 21 21 21 20 20 20 19 19 19 19 19 19 18 18 18 18 18 17 17 17 17 17 17 16 16 16 16 16 16 16 16 15 15 15 15 14 14 14 14 14 14 15 15 15 15 15 15 15 15 15 15 16 16 16 16 16 17 17 17 18 17 17
34 34 34 33 31 30 30 29 29 28 28 28 27 26 26 26 26 26 26 26 25 25 24 23 23 22 22 22 21 21 20 20 20 20 20 20 19 19 19 19 19 19 19 18 18 18 18 17 17 17 17 17 17 17 17 17 17 17 16 16 16 16 16 16 16 16 16 16 16 16 16 16 16 17 17 17 17 17 17 17 18 18 18 18 17
35 34 34 34 33 32 31 30 30 29 29 28 28 27 27 26 26 26 26 26 26 26 25 25 24 24 24 23 23 22 22 22 21 21 21 21 21 20 20 20 20 20 20 20 20 19 19 19 18 18 18 18 18 18 18 18 18 18 17 17 17 17 17 17 17 17 17 17 17 17 17 17 18 18 18 18 18 18 18 18 18 19 19 18 18
34 34 33 34 34 33 32 30 29 29 29 28 28 28 28 27 27 26 26 26 26 26 26 26 26 25 25 25 25 24 23 23 23 22 22 22 22 21 21 21 21 21 21 21 21 20 20 20 19 19 19 19 18 18 18 18 18 18 18 18 18 18 18 18 18 18 18 18 18 19 19 19 19 19 19 19 19 19 19 19 19 19 19 18 18
32 33 33 33 34 33 32 31 29 28 28 28 28 28 28 28 27 27 27 27 27 27 27 27 27 27 26 26 26 25 24 24 24 24 23 23 23 23 22 22 22 21 21 21 21 21 21 21 21 20 20 19 19 18 18 18 18 18 18 18 18 18 18 18 18 18 18 19 19 20 20 20 20 20 20 20 19 19 19 19 19 19 19 19 18
28 30 32 32 33 32 31 31 30 29 27 27 27 27 27 27 28 28 27 27 27 27 27 27 27 27 27 26 26 25 25 25 25 25 24 24 24 24 23 23 23 23 23 22 22 22 22 22 22 22 21 20 20 20 19 18 18 18 18 18 18 18 18 18 19 19 19 19 20 20 20 20 20 21 20 20 20 19 19 19 19 19 19 19 18
23 25 28 29 29 30 30 29 29 29 28 27 26 26 26 27 27 28 27 27 26 26 26 27 27 27 26 26 26 26 25 25 25 25 25 25 25 25 24 24 24 24 24 24 24 23 23 23 23 23 23 22 21 21 20 20 19 19 19 19 19 19 19 19 19 19 19 20 20 20 20 21 21 21 21 20 20 20 19 19 19 19 19 18 17
18 19 22 24 25 26 27 27 26 27 28 27 26 26 26 26 26 27 27 27 26 25 26 26 25 25 26 26 26 25 25 25 25 25 26 26 26 26 26 26 26 25 25 25 25 25 25 25 24 25 24 23 23 23 22 22 21 21 20 20 20 20 21 21 20 20 20 20 21 21 21 21 21 21 20 20 20 20 20 19 19 19 18 18 17
13 15 17 19 21 23 24 24 25 25 25 26 26 25 25 25 26 26 27 27 26 26 26 26 26 26 26 26 26 26 25 25 26 26 26 26 27 27 27 27 27 27 27 27 27 26 27 27 27 26 26 25 25 24 24 24 23 23 23 22 22 22 22 21 21 21 21 21 21 21 21 21 20 20 19 19 19 20 19 18 18 18 17 17 17
9 11 13 15 17 19 20 22 23 24 24 25 24 24 24 25 25 25 26 26 27 27 27 28 27 27 27 27 27 27 27 27 27 27 27 27 28 28 28 28 29 29 29 29 28 28 28 28 28 28 27 27 26 26 26 26 25 25 25 24 24 23 23 22 22 22 22 21 21 21 20 20 20 19 19 18 18 18 18 18 18 18 17 17 17
7 7 9 12 14 15 16 17 19 21 22 23 23 23 24 24 25 25 26 27 27 28 29 29 29 28 28 28 28 27 28 28 28 28 29 29 29 30 30 30 30 30 30 30 30 30 30 29 29 29 29 28 28 28 27 27 27 27 27 26 25 25 24 24 23 23 22 22 22 21 21 21 20 20 19 18 18 18 18 18 18 18 18 17 17
5 5 5 6 8 10 11 13 14 16 18 19 20 20 21 22 22 23 25 26 26 27 28 29 29 29 29 29 29 29 29 29 30 30 30 30 31 31 31 31 31 32 32 32 33 32 32 31 31 31 31 30 30 30 29 29 29 29 29 28 27 25 25 24 24 23 22 22 22 22 21 21 20 20 20 19 18 17 17 17 18 18 18 18 17
7 6 5 4 5 6 7 8 9 10 12 14 15 16 17 18 18 19 20 21 22 23 25 26 26 27 28 28 28 29 29 29 29 30 30 30 31 31 32 32 33 33 34 34 35 35 35 34 33 33 33 33 33 33 32 31 31 30 30 28 27 25 24 24 24 24 23 22 21 21 20 20 19 19 19 19 18 17 17 17 17 17 17 17 17
9 9 8 7 7 6 6 6 6 7 8 9 10 12 13 15 15 16 17 18 19 20 21 22 23 23 24 24 25 25 25 25 25 26 26 27 28 29 30 30 31 31 32 33 34 35 35 35 35 35 35 35 36 35 35 34 32 30 29 28 27 26 25 24 24 22 21 20 19 19 18 18 18 18 18 18 18 17 17 17 17 17 17 17 17
11 11 11 11 10 9 9 8 8 8 8 8 9 9 11 12 13 14 16 17 18 18 18 19 19 20 20 21 21 21 21 21 22 22 22 23 23 24 25 25 26 27 27 28 30 31 31 32 33 33 33 34 34 34 34 33 32 30 28 27 26 26 25 24 23 21 20 19 19 18 17 17 17 17 17 17 17 17 17 17 17 17 17 17 17
12 12 13 13 12 12 11 11 11 11 11 11 11 11 11 11 12 13 14 16 17 17 17 17 17 17 18 18 19 19 19 19 19 19 20 20 20 21 21 22 22 23 24 25 25 26 27 28 29 29 30 31 31 31 30 30 30 29 28 26 25 25 24 23 22 21 20 19 18 18 18 18 17 17 17 17 18 18 18 19 18 18 17 17 17
13 13 14 14 14 14 14 13 13 14 14 14 13 13 13 13 13 13 13 14 15 16 16 16 17 17 17 17 18 18 18 18 18 18 18 19 19 19 20 20 20 21 21 22 23 24 25 25 26 27 27 27 27 27 27 26 26 26 25 24 23 23 22 22 21 20 19 18 18 18 18 18 18 18 18 19 19 19 20 20 20 19 19 19 19
14 14 15 15 15 15 15 15 15 15 15 15 15 15 16 16 15 15 14 14 15 15 15 15 16 16 16 16 17 17 17 17 18 18 19 19 19 20 20 20 20 20 20 21 21 21 21 22 23 24 24 23 22 22 21 20 19 20 21 21 21 20 19 19 19 18 17 17 17 17 17 17 18 18 19 19 20 20 21 21 21 21 21 21 20
15 15 15 15 15 15 15 15 15 16 16 16 16 16 16 16 16 16 15 15 15 15 15 15 16 16 16 16 17 17 17 17 17 18 19 19 20 20 20 20 20 20 20 20 19 19 18 18 18 19 19 19 18 17 17 16 16 18 19 19 18 17 17 17 17 17 17 17 16 16 16 16 17 18 18 19 20 20 21 21 21 21 22 22 21
15 16 16 16 16 16 16 16 15 15 16 16 16 15 15 15 16 16 16 16 16 16 16 16 16 17 17 17 18 18 18 18 18 18 19 20 20 21 21 21 21 21 21 20 20 19 18 17 16 15 15 15 16 16 17 17 17 17 17 17 16 16 17 17 17 17 17 17 17 16 16 17 17 18 18 19 19 20 21 21 21 22 22 22 22
16 17 17 17 17 17 17 17 17 16 16 16 16 15 15 15 16 17 18 18 18 17 17 17 17 18 19 19 20 20 20 21 21 21 21 21 21 21 21 21 22 22 22 21 20 20 19 18 17 16 16 16 18 19 19 19 18 17 16 16 17 18 18 19 19 19 18 18 18 18 18 18 18 18 19 19 19 20 21 21 22 22 23 23 23
18 18 18 18 18 18 19 19 18 18 18 17 17 17 16 16 16 17 18 18 19 19 19 19 19 20 21 21 22 22 22 22 23 22 22 22 22 22 21 21 21 22 22 22 21 21 20 19 19 19 18 19 20 21 21 21 20 19 18 19 19 20 20 20 20 20 20 20 20 20 20 20 19 20 20 20 21 21 22 22 23 23 23 24 24
18 19 19 19 19 20 20 20 20 20 20 20 19 19 18 18 18 18 18 18 19 19 20 20 21 21 22 22 23 23 23 23 24 24 23 23 22 22 21 21 21 21 21 21 21 21 21 20 20 20 20 20 20 21 21 21 21 21 21 21 21 21 21 21 22 22 22 21 21 21 21 21 21 21 22 22 22 23 23 23 24 24 25 25 25
19 20 20 20 21 21 21 22 22 22 22 21 21 21 20 20 19 19 19 20 20 20 20 20 21 21 21 22 22 23 23 23 23 23 24 23 23 23 22 21 21 21 21 21 21 20 21 21 21 21 21 21 21 21 21 21 21 21 21 21 22 22 22 22 23 23 22 22 22 22 22 23 23 23 23 23 24 24 24 24 25 25 26 26 26
20 21 21 21 22 22 22 23 23 23 23 22 22 22 22 22 21 21 20 21 21 21 21 21 21 21 21 21 21 21 21 22 22 23 23 23 23 23 23 22 21 21 21 21 21 21 21 22 22 22 22 22 22 22 22 22 22 22 22 22 23 23 23 24 24 24 24 24 24 24 24 24 24 24 24 24 24 25 25 25 26 26 27 27 27
21 22 22 22 23 23 23 24 24 24 24 24 24 24 24 24 23 23 23 22 22 22 22 22 22 21 21 22 22 22 22 22 22 23 23 24 24 24 23 23 22 22 22 22 22 22 22 22 22 23 23 23 23 24 23 23 24 24 24 24 24 24 24 25 25 25 25 25 25 25 25 25 25 25 25 25 25 26 26 27 28 28 28 29 29
22 23 23 23 23 23 24 24 25 25 25 25 25 25 25 25 25 25 24 24 23 23 23 23 23 23 22 22 22 23 23 23 23 23 23 24 24 24 24 23 22 22 22 22 23 23 23 23 23 24 24 24 24 24 24 24 24 25 25 25 25 26 26 26 26 26 26 26 26 26 26 26 26 26 26 26 27 27 28 29 29 30 30 31 32
24 24 24 24 24 24 24 25 25 26 26 26 26 26 26 26 26 26 25 25 25 25 24 24 24 24 24 24 24 23 24 24 24 24 24 23 23 23 23 23 23 22 22 22 23 23 23 23 24 24 25 25 25 26 25 25 26 26 26 26 27 27 27 27 27 27 27 27 27 27 27 28 28 28 28 28 29 30 30 31 31 32 33 33 34
25 25 25 25 25 25 25 25 26 26 26 26 26 27 26 26 26 26 26 26 26 26 26 26 26 26 25 25 25 25 25 25 24 24 24 24 23 23 23 23 23 23 22 22 23 23 23 24 24 25 25 26 27 27 27 27 27 27 28 28 28 28 28 28 28 28 28 28 29 29 29 29 29 30 30 31 31 32 32 33 34 34 35 35 35
26 27 27 27 27 26 26 26 26 26 26 26 26 27 27 27 27 27 27 27 26 26 26 26 27 27 27 26 26 26 25 25 24 24 24 23 23 23 23 23 23 23 23 23 23 23 23 24 24 25 26 26 27 27 28 28 28 28 29 29 29 29 29 29 29 30 30 30 30 31 31 31 31 32 32 33 33 34 34 35 36 36 37 37 36
27 28 28 28 28 28 28 28 28 27 27 27 27 27 27 27 27 27 27 27 27 27 27 27 27 27 27 27 27 26 26 25 24 24 23 23 23 23 24 24 24 24 25 25 25 24 24 25 25 25 26 26 27 27 28 29 29 29 29 29 30 30 30 30 31 31 31 31 32 32 32 33 33 34 34 35 35 36 36 37 37 37 37 37 36
28 29 29 29 29 29 29 29 29 29 28 28 28 27 27 27 27 28 28 27 27 27 27 27 27 27 27 27 27 26 26 25 24 24 24 24 24 24 24 24 25 25 26 26 27 27 27 27 27 27 27 27 27 27 28 29 29 30 30 30 31 31 31 32 32 32 32 32 33 33 34 34 35 35 36 36 37 37 37 37 37 36 36 36 36
29 29 30 30 30 30 30 30 29 29 29 29 29 29 28 28 28 28 28 28 27 27 27 27 27 27 27 26 26 26 26 25 25 25 24 24 25 25 25 25 25 26 26 26 27 28 28 29 30 30 30 30 30 30 30 30 30 30 31 31 31 32 32 32 33 33 33 34 34 34 35 35 36 36 37 37 37 37 37 36 36 36 36 36 36
29 29 30 30 30 30 30 30 30 30 30 30 30 30 29 29 29 29 28 28 28 28 28 28 28 27 27 27 26 26 26 26 26 26 25 25 26 26 26 26 26 27 27 27 27 28 28 29 29 30 30 31 31 32 33 33 34 34 33 33 32 32 32 32 33 34 34 34 35 35 36 36 37 37 37 36 36 36 36 36 36 36 36 36 36
29 29 30 30 30 30 30 30 30 31 31 31 31 30 30 30 30 30 29 29 29 29 29 29 29 29 28 28 27 27 27 27 27 26 27 27 27 27 27 27 27 27 27 27 27 28 28 29 29 29 29 29 30 31 31 32 33 34 35 35 35 34 34 33 33 34 34 35 36 36 37 37 37 36 36 36 36 36 36 36 36 36 36 36 36
30 30 30 30 30 30 31 31 31 31 31 31 31 31 30 30 30 30 30 30 30 30 30 30 30 30 29 29 29 28 28 28 28 27 27 27 27 27 28 28 28 28 28 28 28 28 29 29 29 30 30 30 30 29 30 30 30 31 32 34 34 35 35 35 35 36 36 37 37 37 37 37 37 37 36 36 36 36 36 36 36 36 36 36 35
30 30 30 31 31 31 31 31 31 31 31 31 31 31 31 30 30 30 31 31 31 31 31 31 31 31 30 30 30 30 29 29 29 29 29 28 28 28 28 28 28 28 28 28 29 29 29 30 30 30 30 30 30 30 30 30 30 31 31 31 32 33 34 35 35 35 35 36 36 36 36 37 37 37 37 37 37 37 37 36 36 36 36 35 35
30 31 31 31 31 31 31 32 32 32 32 32 32 31 31 31 31 31 31 31 31 31 31 31 31 31 31 31 31 31 31 31 30 30 29 29 29 29 29 28 28 28 28 29 29 29 30 30 30 30 30 30 31 31 31 31 31 32 32 32 33 34 34 34 34 34 34 34 34 35 35 35 36 36 36 36 36 36 36 35 35 35 35 35 35
31 31 31 31 31 32 32 32 32 32 32 32 32 32 32 31 31 31 31 31 31 31 30 31 31 31 31 31 31 31 31 31 31 30 30 30 30 29 29 29 29 29 29 29 29 30 30 30 30 30 30 30 30 31 31 31 31 32 32 33 34 34 34 33 33 33 34 34 34 34 35 35 35 35 34 34 34 34 34 34 34 34 34 35 35
30 31 31 31 31 32 32 32 32 32 32 32 32 32 32 32 31 31 31 31 31 31 31 30 30 31 31 31 31 31 31 31 31 30 30 30 30 30 30 30 30 30 30 30 30 30 30 30 30 30 30 30 30 30 31 31 31 32 32 33 33 32 32 32 32 32 32 32 32 33 33 33 33 33 33 33 33 33 33 33 33 33 34 34 35
29 29 29 30 30 31 31 31 31 31 31 32 32 32 32 32 31 31 31 31 31 31 31 31 31 31 31 31 31 31 31 31 31 31 31 31 31 31 31 30 30 30 30 30 30 30 29 29 29 29 29 29 30 30 31 31 31 32 32 32 31 31 31 31 31 31 31 30 30 30 30 31 31 31 31 31 31 32 32 32 33 33 33 34 34
27 27 27 28 28 29 29 29 30 30 30 31 31 32 32 32 32 32 31 31 31 31 31 31 31 31 31 31 31 31 31 31 31 31 31 31 31 31 31 31 30 30 30 30 29 29 28 28 28 28 29 29 30 30 31 31 31 31 31 30 30 30 30 30 30 30 30 29 29 29 29 30 30 31 31 31 31 32 32 33 33 33 33 34 34
Wind_Direction
220 221 221 221 221 222 223 223 223 224 223 223 223 224 224 224 226 226 225 223 223 222 223 225 227 227 228 228 228 229 230 232 234 235 236 237 237 238 240 241 242 244 247 249 250 251 253 256 257 257 257 258 260 263 267 273 276 278 279 279 280 281 281 280 283 291 301 307 311 317 324 328 331 334 335 336 338 340 341 341 342 343 344 345 345
222 223 222 222 222 223 223 224 224 225 225 224 224 225 225 226 228 228 227 226 225 225 225 226 228 230 230 230 231 232 233 234 235 236 238 239 240 240 241 241 242 244 247 249 251 252 255 258 259 260 259 260 261 264 267 272 274 275 276 275 276 276 276 277 280 287 294 301 307 312 317 321 323 327 331 332 333 334 335 336 338 339 340 340 341
224 224 224 224 224 224 224 225 225 225 226 226 226 226 226 228 229 229 229 228 227 227 228 228 230 231 232 233 234 234 235 236 237 237 239 240 241 242 242 243 244 245 246 247 249 251 254 257 259 260 260 260 262 263 266 269 270 271 273 273 272 273 274 276 279 284 289 296 304 308 312 315 317 321 326 328 329 331 331 333 334 335 337 338 339
226 225 226 226 226 226 226 226 226 226 226 227 226 226 227 228 229 230 229 230 230 230 230 231 232 233 234 234 235 236 237 238 238 239 239 240 241 242 243 244 246 246 247 248 249 250 253 255 257 258 258 258 259 260 263 264 265 268 271 270 269 271 274 276 278 282 286 292 299 304 308 311 313 317 321 323 325 327 327 328 329 330 333 336 337
228 228 228 228 228 228 227 228 228 227 227 227 227 227 227 228 230 230 230 231 231 232 232 232 233 234 235 235 236 237 239 239 239 239 240 241 241 242 243 243 245 246 248 249 250 251 253 254 256 258 257 257 258 259 260 260 261 263 266 267 268 271 273 274 277 280 283 288 294 300 306 309 311 314 317 319 320 321 322 323 325 327 329 331 334
230 230 230 230 230 230 229 229 229 229 229 228 228 227 228 229 230 230 231 232 233 233 233 234 235 236 236 237 237 238 240 241 241 241 242 242 243 243 244 244 245 246 248 249 250 251 252 254 256 258 258 259 261 262 262 261 261 263 264 266 268 270 272 274 277 279 282 286 291 297 303 306 308 311 313 315 316 317 319 319 321 324 326 327 329
230 231 232 232 232 232 231 230 230 230 230 229 229 228 228 229 230 231 231 233 234 234 235 235 236 237 238 239 239 240 241 242 243 244 244 245 245 246 246 246 247 248 250 251 251 252 253 254 256 257 258 260 262 263 264 264 264 265 267 269 269 269 271 274 276 278 281 285 290 295 300 303 306 308 309 311 312 314 318 319 319 322 324 325 325
232 233 233 234 234 233 233 232 231 231 231 230 230 230 230 230 230 231 232 233 235 236 236 236 237 239 239 240 241 241 242 243 244 245 246 246 247 248 247 247 249 250 251 252 253 254 255 255 256 257 258 259 260 262 263 265 266 267 268 270 270 271 273 275 276 278 280 283 287 292 296 300 303 306 306 308 310 312 316 317 318 319 321 323 323
233 234 234 235 236 235 234 233 232 231 231 231 231 231 231 231 232 232 233 234 236 236 236 237 239 240 240 241 242 242 244 245 246 246 247 247 247 248 248 248 250 251 252 253 254 255 256 256 257 257 258 259 259 261 262 262 264 266 267 269 270 271 274 275 276 277 279 281 285 289 293 296 300 303 305 307 308 310 312 314 315 316 318 320 321
235 234 234 235 236 235 234 233 232 231 231 231 232 232 233 234 234 234 235 235 236 237 238 239 239 240 240 241 243 244 245 246 247 246 246 247 248 249 249 250 251 252 253 254 255 256 257 257 257 258 259 260 261 262 262 263 264 265 266 267 268 270 272 274 275 276 278 280 282 285 288 291 295 299 302 304 305 307 309 310 312 313 315 316 317
236 235 235 234 234 234 234 233 232 231 231 231 232 233 233 234 235 236 236 237 237 238 239 240 241 241 241 242 244 245 246 247 247 246 247 247 248 250 251 252 252 253 254 254 255 256 257 257 258 259 260 260 261 263 264 264 264 265 266 266 267 269 271 273 275 276 277 278 280 282 284 287 291 296 298 300 301 304 306 308 309 311 313 313 313
237 236 235 234 233 234 234 234 232 231 231 231 232 232 233 233 234 235 236 237 237 238 239 240 241 242 243 244 245 246 248 248 247 247 248 248 249 250 251 253 254 254 255 256 256 257 258 258 259 259 260 260 261 263 264 264 264 265 266 266 267 269 271 273 276 277 277 278 279 280 283 286 290 293 295 297 298 300 302 305 307 308 310 311 311
238 236 234 233 233 234 234 234 233 232 231 231 232 232 232 233 234 235 236 236 237 238 239 240 241 242 243 244 246 247 248 249 248 248 249 249 249 251 252 253 254 255 256 256 257 258 259 260 260 260 260 261 262 264 264 263 263 264 265 267 268 269 271 272 274 276 277 278 279 280 283 286 289 291 293 295 296 298 300 302 304 306 307 309 310
242 238 235 232 232 232 233 234 234 233 232 232 232 232 232 233 234 236 236 236 237 238 240 241 241 242 243 245 246 247 248 249 249 249 250 250 251 252 253 254 255 255 256 256 258 259 259 260 260 260 260 260 262 263 264 263 263 264 265 267 269 269 270 271 273 275 276 277 279 281 283 285 287 289 290 291 293 295 297 299 301 304 305 306 308
243 240 236 232 230 231 232 233 233 232 231 232 233 233 233 234 235 236 237 237 238 238 239 241 242 242 243 244 245 247 248 248 249 249 250 251 252 253 254 255 255 256 256 256 258 259 259 259 259 259 259 260 261 262 263 263 263 264 266 268 269 270 272 274 275 276 276 277 279 282 283 285 286 287 288 289 291 293 294 296 299 301 303 304 306
243 241 237 232 229 229 230 231 232 232 232 233 234 234 235 235 235 236 237 237 238 238 238 240 241 241 242 243 245 246 247 248 249 249 250 250 251 253 254 255 256 256 257 257 258 258 259 260 260 259 258 259 260 260 261 262 263 265 267 268 270 272 274 276 277 277 277 277 279 281 283 285 286 287 287 288 289 291 292 294 296 298 300 302 303
247 244 238 233 231 229 228 229 231 232 233 234 235 235 236 236 235 235 236 237 237 238 237 238 239 240 241 242 244 246 247 248 249 249 250 250 252 253 254 255 255 256 257 258 258 258 259 259 259 259 258 257 257 257 258 260 263 265 266 268 271 273 274 275 276 277 278 278 279 280 281 283 285 287 288 288 289 290 291 292 294 295 297 299 300
252 244 238 235 232 230 229 230 231 233 233 233 235 236 236 236 236 236 236 237 237 238 238 239 240 241 242 243 245 247 248 249 250 251 252 252 253 254 254 255 256 257 257 258 258 259 259 259 260 259 259 257 256 256 257 259 262 264 266 267 270 271 273 273 273 274 277 278 280 281 281 282 284 285 287 288 289 290 291 291 293 294 295 297 298
258 246 239 236 233 232 234 234 234 234 233 233 235 237 237 237 237 237 238 238 239 239 240 241 242 243 244 246 248 249 250 251 252 253 253 253 254 255 255 256 257 258 258 259 259 259 259 260 261 260 259 258 256 256 257 259 261 263 265 266 268 270 271 271 270 272 274 275 277 279 280 281 282 282 284 287 289 291 291 291 291 292 293 295 295
268 258 246 238 236 237 239 239 236 235 235 235 236 238 239 239 239 239 240 241 241 242 242 242 243 245 246 248 249 250 252 253 254 255 254 254 255 256 256 257 257 258 259 259 259 260 259 260 261 261 260 259 257 256 257 259 260 262 263 265 266 268 270 269 268 269 271 273 275 276 277 277 277 277 280 283 287 290 291 291 292 292 292 293 294
263 260 247 239 237 237 240 240 237 235 235 236 236 237 239 240 241 242 242 242 243 243 244 244 245 246 248 250 252 253 254 255 256 257 256 255 255 256 257 258 258 259 259 259 260 260 260 260 260 260 259 258 256 256 257 259 260 261 263 264 264 266 268 267 267 268 270 272 274 275 275 273 273 274 277 280 284 288 290 292 292 292 291 291 292
253 250 247 247 248 246 244 241 235 232 233 235 236 238 239 240 241 241 241 241 241 242 243 244 244 246 248 250 252 253 255 256 257 257 257 257 257 258 259 260 260 261 261 261 260 260 260 260 260 260 259 258 257 257 258 258 260 260 260 261 261 263 264 265 265 267 269 270 272 273 273 271 270 272 275 278 281 285 289 291 291 291 291 292 292
252 250 249 251 257 260 258 252 245 240 238 237 239 241 242 242 242 242 241 240 240 242 243 243 243 244 247 248 250 252 254 255 256 257 257 258 259 260 261 262 263 263 263 263 262 262 261 260 260 260 259 258 258 258 257 258 259 258 256 256 259 260 261 263 264 264 265 268 270 271 272 272 272 272 274 276 279 283 287 290 291 291 292 293 294
253 253 252 252 255 258 258 256 254 252 248 245 245 247 247 246 245 245 244 242 241 242 244 244 244 244 245 246 248 250 252 254 255 256 257 259 260 262 263 264 265 265 265 265 263 262 262 262 261 260 259 259 258 257 255 255 255 254 253 255 257 257 258 260 260 259 261 264 267 269 271 274 274 275 275 275 277 281 285 288 290 291 292 293 294
255 256 256 256 256 258 258 256 255 255 254 254 254 255 255 253 252 252 251 248 245 244 245 245 246 246 246 248 249 250 252 254 255 257 259 261 262 263 265 266 267 268 267 266 265 263 263 263 262 260 260 259 258 255 254 252 251 250 251 253 254 254 255 256 255 255 258 261 264 267 270 272 274 275 276 276 277 279 282 285 287 288 290 291 293
258 258 258 259 259 260 259 258 257 258 259 260 261 261 261 259 258 257 257 253 249 246 245 245 245 246 247 248 249 250 252 253 254 256 258 260 261 263 265 266 268 269 268 268 269 267 265 264 263 262 260 258 256 255 253 249 247 246 247 249 249 250 251 252 251 253 256 259 262 265 267 270 272 274 275 276 277 278 280 282 284 285 287 289 291
260 259 259 260 261 261 261 260 260 261 262 264 265 265 264 263 260 259 258 256 253 251 249 248 246 246 247 248 249 250 252 254 255 257 259 260 262 263 265 266 268 269 269 271 272 271 269 267 264 261 256 252 251 251 247 241 240 241 241 244 246 246 247 248 249 251 254 258 262 264 266 269 271 273 274 276 276 277 279 281 283 285 287 289 291
260 260 260 260 261 262 263 262 262 263 264 265 266 267 266 264 260 258 257 256 255 254 253 251 250 250 249 249 250 252 255 258 260 261 262 263 264 265 266 268 269 270 271 272 271 270 270 270 265 258 249 243 244 244 238 235 239 240 241 244 245 243 242 244 245 249 254 258 262 265 268 271 273 274 275 276 277 278 279 281 284 286 288 290 291
262 261 261 261 262 263 264 265 264 264 264 265 266 266 266 264 261 258 256 254 254 253 252 252 252 252 252 251 251 254 257 262 265 266 268 269 269 269 269 269 269 271 272 271 269 267 267 266 263 257 245 235 235 238 237 238 242 243 243 244 243 241 242 243 246 251 256 260 264 266 268 271 273 275 276 277 278 279 280 282 284 286 288 290 291
265 264 264 264 263 263 264 265 265 265 264 265 266 265 265 264 262 259 257 256 257 256 255 254 254 254 254 254 254 256 259 262 266 268 271 272 272 271 270 269 268 269 270 268 266 265 263 260 257 255 247 238 237 239 242 244 246 245 244 244 242 242 245 248 251 256 259 262 265 268 269 272 274 275 277 277 278 279 280 282 284 286 287 289 290
265 265 265 266 265 265 265 265 265 265 265 265 266 265 264 263 262 260 259 258 260 261 260 260 259 258 258 258 259 260 261 263 265 267 269 271 272 271 271 269 268 268 267 266 263 262 260 257 255 252 248 245 244 244 246 247 247 246 245 246 246 247 249 252 255 258 261 264 266 269 271 273 274 275 277 278 278 280 281 282 284 285 287 288 289
265 264 264 265 265 266 266 266 266 266 266 266 266 265 264 263 262 261 261 260 261 263 264 265 264 263 263 263 263 264 264 265 266 266 267 269 270 270 270 269 269 268 266 264 263 262 259 257 255 252 250 249 248 247 247 247 247 247 247 248 249 250 252 254 256 259 262 265 267 269 271 273 274 276 277 278 279 280 281 282 283 284 286 287 287
269 267 266 265 265 265 266 266 267 267 267 266 265 265 265 264 263 262 262 262 263 264 266 267 268 267 267 267 267 267 268 269 269 268 268 269 269 269 269 269 269 268 265 263 262 262 260 258 256 253 252 250 249 247 247 247 248 249 249 249 250 252 254 256 258 261 263 265 267 270 272 273 274 276 277 279 280 280 281 282 283 284 284 285 286
272 271 269 268 267 267 266 266 266 266 266 265 264 264 264 264 263 263 263 263 264 266 267 269 269 270 271 271 270 269 269 269 270 269 269 268 268 268 268 268 268 267 264 262 260 259 259 258 256 254 251 249 248 247 248 248 249 250 251 251 253 254 255 257 259 261 263 265 268 270 271 273 274 276 277 278 279 280 281 282 283 284 285 285 286
272 272 272 271 270 269 267 267 266 266 266 265 264 264 263 262 262 262 263 263 264 265 267 268 268 269 270 270 270 270 270 270 270 270 270 269 268 267 266 266 266 265 263 261 259 258 258 257 255 253 251 249 248 248 249 250 250 251 252 253 255 255 256 258 260 262 264 266 268 270 271 273 274 275 277 278 279 281 282 283 283 284 285 286 287
273 272 272 272 271 270 269 268 267 266 266 266 265 265 264 262 261 261 261 262 262 264 265 266 266 267 268 268 269 270 270 271 272 272 272 271 269 267 266 265 265 264 263 261 258 257 257 257 256 255 253 251 249 249 250 251 252 253 254 256 257 257 258 260 261 263 265 267 268 270 271 273 274 275 277 278 280 282 283 283 283 283 284 285 286
272 272 272 271 271 271 270 269 268 268 267 266 266 265 265 264 262 261 261 261 261 262 263 264 265 266 267 267 268 268 270 271 273 273 273 272 270 268 266 264 263 262 262 261 259 257 256 257 256 256 254 252 251 251 252 252 253 254 255 257 258 259 260 261 262 264 265 267 269 270 272 273 275 276 277 278 280 281 282 282 283 284 284 285 286
272 272 271 271 271 271 270 269 269 268 268 267 266 265 264 263 262 261 261 260 261 261 262 263 264 264 265 266 267 268 269 270 271 271 271 270 268 267 266 264 262 260 259 259 259 258 257 257 256 256 255 254 253 253 254 254 255 255 256 257 259 260 261 262 264 265 266 268 270 271 272 274 275 276 277 278 279 280 281 282 283 284 285 286 286
272 271 271 270 270 270 270 269 268 268 267 267 266 265 263 263 262 261 260 260 260 261 262 262 263 263 264 264 265 267 268 269 269 269 268 268 266 265 265 264 262 260 258 257 258 258 258 257 257 257 257 256 255 255 255 256 256 257 258 259 260 261 262 263 265 267 268 269 271 272 273 274 275 276 277 278 279 280 281 282 283 284 284 285 285
271 271 271 270 269 269 269 268 268 267 266 265 265 264 263 262 261 260 260 260 260 260 261 261 262 263 263 264 265 266 266 267 267 266 266 266 266 265 264 264 264 262 261 259 259 258 258 258 258 258 258 258 258 257 257 257 257 258 260 261 262 263 264 266 267 268 269 270 271 272 273 274 274 275 276 277 278 279 281 281 282 283 283 283 284
271 271 271 270 269 269 268 267 267 266 265 264 264 263 262 261 260 260 259 259 259 260 260 261 261 262 263 264 265 265 266 265 265 265 265 266 266 266 265 265 264 264 263 262 261 261 260 260 259 259 259 259 259 259 259 259 258 259 260 261 262 263 265 266 267 268 268 269 270 272 273 273 274 275 276 277 278 279 281 281 282 282 283 283 283
272 271 270 270 269 269 268 267 266 265 265 264 263 262 261 260 260 259 258 258 258 259 259 260 261 262 262 263 264 264 265 265 265 265 265 266 266 266 266 266 265 265 265 265 264 263 263 262 262 262 261 261 261 262 262 261 261 261 262 263 264 265 266 267 268 269 269 270 271 273 274 275 275 276 277 278 279 280 280 281 282 282 283 283 284
273 271 270 269 268 268 267 267 266 265 265 264 263 262 261 260 259 259 258 257 257 257 258 258 259 261 262 262 263 264 264 264 264 265 265 265 265 266 266 266 266 266 266 266 266 265 264 264 264 264 263 263 262 262 262 262 262 263 263 264 265 267 268 268 269 270 271 272 273 274 274 275 275 276 277 277 278 279 280 281 282 282 283 283 284
275 273 271 269 268 267 266 266 266 265 264 263 263 262 261 260 260 259 258 257 257 257 257 258 258 259 260 261 262 262 262 263 264 264 265 265 265 265 265 265 266 266 266 267 267 266 265 264 264 264 265 265 265 264 264 263 263 264 264 265 265 266 267 268 269 270 272 273 274 274 275 275 275 276 276 277 278 279 280 281 282 282 283 283 284
275 274 272 270 269 267 266 265 265 264 263 262 262 262 261 261 260 259 258 258 257 257 257 258 258 258 259 259 260 261 261 262 262 263 264 264 265 265 265 265 265 266 266 266 266 266 266 265 264 264 265 266 266 267 267 267 266 267 267 267 268 268 269 270 271 271 272 273 274 274 275 275 276 276 277 277 278 279 279 280 281 282 283 283 283
275 274 273 271 270 268 267 266 265 264 263 262 262 261 260 260 260 260 259 258 258 257 257 257 257 257 258 258 259 260 261 262 262 263 263 263 264 265 265 265 266 266 266 266 265 265 265 265 265 264 265 265 266 266 267 267 268 269 269 270 271 272 273 273 273 273 273 273 274 274 275 276 277 277 278 278 279 279 280 280 281 282 282 283 283
274 274 273 272 270 269 268 266 265 264 262 261 261 260 260 259 260 260 259 258 258 257 257 257 257 257 257 258 259 260 261 262 262 262 263 263 264 265 265 265 265 266 266 266 266 266 265 265 265 265 264 264 265 266 266 267 268 269 270 271 273 273 274 274 274 274 274 274 275 276 276 277 277 278 278 279 279 279 280 280 280 281 281 282 282
274 274 273 272 271 269 268 267 265 264 262 261 260 259 259 259 259 259 258 258 258 257 257 256 257 257 258 259 259 261 261 262 263 263 263 264 264 265 265 266 266 266 267 267 266 266 266 265 265 264 264 264 265 266 266 267 268 269 271 272 273 274 274 274 274 275 276 277 277 278 278 278 279 279 280 280 280 280 280 280 280 281 281 282 283
275 274 273 272 271 269 268 267 266 264 263 262 260 259 259 259 259 258 258 257 257 256 256 256 257 258 258 259 259 260 261 262 263 263 264 264 264 265 266 266 267 268 268 268 268 267 267 266 264 264 264 265 266 266 267 269 270 271 272 273 274 275 275 275 276 277 278 279 279 279 279 279 280 280 280 280 280 280 280 280 280 280 281 283 284
276 275 273 272 271 269 268 267 266 265 264 263 260 259 258 258 258 258 258 257 256 256 257 257 258 258 258 259 259 260 260 261 262 263 263 264 264 265 266 267 268 269 270 270 269 268 266 265 264 265 265 266 267 268 269 270 272 273 274 274 275 275 276 277 278 279 279 279 279 279 279 279 279 279 280 280 280 280 280 281 281 281 282 283 284
277 276 274 273 271 270 269 267 266 265 264 263 260 258 258 257 258 258 257 257 256 257 257 258 258 258 258 258 259 259 260 261 262 262 263 264 264 264 265 266 268 269 269 269 268 267 265 264 265 265 266 267 268 269 270 272 273 274 274 275 276 277 278 280 280 281 281 280 280 280 279 279 279 279 280 280 281 281 282 283 283 283 283 284 285